Lid_Strength_Index
15 14 14 14 13 13 13 13 13 11 11 10 10 10 10 10 10 10 10 10 10 10 9 9 8 8 8
16 16 14 13 13 14 13 13 13 11 11 11 11 11 11 11 11 11 11 11 11 10 10 9 9 9 8
16 15 14 14 15 15 15 15 13 11 11 12 12 12 11 11 11 11 12 11 11 10 10 10 10 10 9
15 15 15 16 16 17 16 16 16 14 13 13 12 12 12 12 12 12 12 11 11 11 11 11 10 10 9
16 17 17 17 17 17 17 17 17 16 17 17 17 16 16 14 13 12 11 11 11 11 10 9 9 9 9
16 16 17 17 18 17 17 18 19 17 18 18 17 17 16 16 12 11 11 10 10 10 9 10 9 9 9
15 15 16 16 16 17 17 18 18 17 17 19 17 17 16 14 12 11 10 10 10 9 9 9 9 9 9
14 15 14 14 15 17 18 17 17 16 17 19 18 17 15 15 11 10 10 10 10 9 9 9 10 10 10
11 11 11 12 13 15 18 19 19 18 17 17 17 17 16 15 14 10 10 10 10 10 10 10 10 10 12
14 13 14 14 13 16 17 19 19 19 16 17 17 16 19 15 14 14 14 12 11 11 11 11 10 12 12
16 16 16 16 16 16 16 17 20 18 14 16 19 17 18 19 16 14 15 14 14 14 11 9 8 8 11
16 16 17 16 17 16 16 15 15 16 15 15 23 19 23 20 19 16 15 14 14 14 12 9 9 8 8
16 16 16 17 16 16 15 14 16 15 14 15 17 16 22 23 18 18 16 16 13 13 12 12 12 11 13
16 16 16 17 18 16 20 18 21 20 15 14 14 16 22 17 16 16 15 16 14 13 12 12 12 12 12
17 17 17 17 18 18 19 21 23 22 21 18 17 15 16 15 16 15 15 15 13 13 14 14 12 11 11
16 17 19 19 20 20 20 22 23 23 23 21 20 18 18 17 12 18 19 17 14 14 14 13 13 11 11
16 18 20 21 19 21 21 21 23 23 23 22 23 22 17 18 15 11 15 14 14 13 13 13 13 12 11